Terminal Aerodrome Forecast
Issued by NWS Upton, NY

Home | Current Version | Previous Version | Text Only | Print | Product List | Glossary On
Versions: 1 2 3 4 5 6 7 8 9 10 11 12 13 14 15 16 17 18 19 20 21 22 23 24 25 26 27 28 29 30 31 32 33 34 35 36 37 38 39 40 41 42 43 44 45 46 47 48 49 50
000
FTUS41 KOKX 191140
TAFBDR
TAF
KBDR 191140Z 1912/2012 VRB03KT 4SM BR SCT006 OVC010
     FM191300 13005KT 4SM BR OVC006
     FM191500 13007KT P6SM VCSH BKN010
     FM191900 14008KT 5SM -SHRA BKN020
     FM200000 11005KT 3SM BR VCSH BKN007 OVC012
     FM200400 VRB04KT 2SM BR OVC005=

USA.gov is the U.S. government's official web portal to all federal, state and local government web resources and services.